User: anonymous   Login
Location: Unspecified
(0.0000°N, 0.0000°E)
Time: 10:25:37
(UTC+00:00)
Language:

IDEFIX/ARIANE 42P - Orbit

View from above orbital plane
View from above orbital plane
View from above satellite
View from above satellite

Ground track
Ground track

The orbit data is extracted from the following two-line orbital elements,

1 27422U 02021B   21168.59809691  .00000020  00000-0  24503-4 0  9997
2 27422  98.4025 121.5885 0011145 229.5726 130.4485 14.29321967997321
Epoch (UTC): 17 June 2021 14:21:15
Eccentricity: 0.0011145
inclination: 98.4025°
perigee height: 786 km
apogee height: 802 km
right ascension of ascending node: 121.5885°
argument of perigee: 229.5726°
revolutions per day: 14.29321967
mean anomaly at epoch: 130.4485°
orbit number at epoch: 99732

The dashed part of the orbit path shows where the satellite is in the earth's shadow,  

DLR